This is the latest recevied weather packets stored in our database for station/object N7ZAP. If no packets are shown the sender has not sent any weather packets the latest 10 day(s).
| Time | Temp. | Humidity | Pressure | Rain* | Wind** | Luminosity | Snow |
|---|---|---|---|---|---|---|---|
| 1788191624 | 28.33° C | 37% | 1021.7 hPa | 0 mm | - | - | - |
| 1788191320 | 27.78° C | 38% | 1021.6 hPa | 0 mm | - | - | - |
| 1788191017 | 27.78° C | 38% | 1021.6 hPa | 0 mm | - | - | - |
| 1788190715 | 27.22° C | 39% | 1021.8 hPa | 0 mm | - | - | - |
| 1788190411 | 27.22° C | 40% | 1021.4 hPa | 0 mm | - | - | - |
| 1788190107 | 26.67° C | 41% | 1021.6 hPa | 0 mm | - | - | - |
| 1788189802 | 26.11° C | 41% | 1021.8 hPa | 0 mm | - | - | - |
| 1788189511 | 26.11° C | 42% | 1021.4 hPa | 0 mm | - | - | - |
| 1788189196 | 26.11° C | 43% | 1021.4 hPa | 0 mm | - | - | - |
| 1788188892 | 26.11° C | 43% | 1021.8 hPa | 0 mm | - | - | - |
| 1788188587 | 25.56° C | 43% | 1021.7 hPa | 0 mm | - | - | - |
| 1788188286 | 25.56° C | 41% | 1021.9 hPa | 0 mm | - | - | - |
| 1788187983 | 25.56° C | 41% | 1021.6 hPa | 0 mm | - | - | - |
| 1788187678 | 25.56° C | 41% | 1021.6 hPa | 0 mm | - | - | - |
| 1788187375 | 25° C | 42% | 1021.7 hPa | 0 mm | - | - | - |
| 1788187074 | 25° C | 43% | 1021.6 hPa | 0 mm | - | - | - |
| 1788186769 | 24.44° C | 44% | 1021.3 hPa | 0 mm | - | - | - |
| 1788186464 | 23.89° C | 45% | 1021.4 hPa | 0 mm | - | - | - |
| 1788186160 | 23.33° C | 46% | 1021.3 hPa | 0 mm | - | - | - |
| 1788185859 | 23.89° C | 46% | 1021.3 hPa | 0 mm | - | - | - |
| 1788185554 | 23.33° C | 46% | 1021.4 hPa | 0 mm | - | - | - |
| 1788185255 | 23.33° C | 48% | 1021.3 hPa | 0 mm | - | - | - |
| 1788184949 | 22.78° C | 48% | 1021.1 hPa | 0 mm | - | - | - |
| 1788184646 | 22.78° C | 50% | 1021.6 hPa | 0 mm | - | - | - |
| 1788184343 | 22.22° C | 51% | 1021.6 hPa | 0 mm | - | - | - |
* Rain latest hour (hover to see other rain measurements)
** Current wind speed in m/s (hover to see current wind gust speed)